Location: Ammerl�gen
(47.2167°N, 9.6000°E)
Time: 13:20:55
(UTC+00:00)

Iridium 4 Rocket - Pass Details

Date: 29 July 2021
Orbit: 583 x 905 km, 86.9° (Epoch: 25 September)

Event Time Altitude Azimuth Distance (km) Brightness Sun altitude
Rises 03:11:13 0° 339° (NNW) 3,388 7.1 -7.3°
Reaches altitude 10° 03:14:50 10° 315° (NW) 2,505 6.1 -6.8°
Maximum altitude 03:17:30 14° 287° (WNW) 2,283 5.6 -6.4°
Drops below altitude 10° 03:20:12 10° 259° (W) 2,557 5.6 -6.0°
Enters shadow 03:21:47 - 247° (WSW) 2,903 5.8 -5.8°
